FW1728 Weather Reports


Display with metric or nautical units.
time (UTC)temp
F
wind
direction
speed
MPH
gust
MPH
rain 1hr
in
rain 24hr
in
rain mn
in
humidity
%
barometer
mb
20260906110044 75 56 0.0 2.0 0.00 0.00 0.00 97 1012.8
20260906104549 75 0 0.0 3.0 0.00 0.00 0.00 97 1012.5
20260906103045 75 0 0.0 1.0 0.00 0.00 0.00 96 1012.3
20260906101544 75 0 0.0 1.0 0.00 0.00 0.00 96 1012.3
20260906100043 75 0 0.0 1.0 0.00 0.00 0.00 96 1012.3
20260906094548 75 0 0.0 1.0 0.00 0.00 0.00 96 1012.0
20260906093046 76 0 0.0 1.0 0.00 0.00 0.00 96 1011.9
20260906091543 76 0 0.0 0.0 0.00 0.00 0.00 97 1011.7
20260906090049 76 0 0.0 1.0 0.00 0.00 0.00 96 1011.6
20260906084545 76 0 0.0 2.0 0.00 0.01 0.00 96 1011.6
20260906083049 76 59 0.0 1.0 0.00 0.01 0.00 96 1011.4
20260906081551 76 0 0.0 0.0 0.00 0.01 0.00 96 1011.2
20260906080041 76 0 0.0 1.0 0.00 0.01 0.00 96 1011.2
20260906074547 76 0 0.0 1.0 0.00 0.01 0.00 96 1011.1
20260906073045 76 0 0.0 1.0 0.00 0.01 0.00 95 1011.3
20260906071556 77 0 0.0 1.0 0.00 0.01 0.00 96 1011.3
20260906070051 77 0 0.0 1.0 0.00 0.01 0.00 95 1011.1
20260906064546 77 0 0.0 1.0 0.00 0.01 0.00 95 1011.3
20260906063045 77 0 0.0 3.0 0.00 0.01 0.00 95 1011.3
20260906061547 77 108 0.0 2.0 0.00 0.01 0.00 95 1011.4
20260906060044 78 0 0.0 0.0 0.00 0.01 0.00 95 1011.5
20260906054550 78 0 0.0 1.0 0.00 0.01 0.00 95 1011.5
20260906053045 78 0 0.0 1.0 0.00 0.01 0.00 94 1011.6
20260906051550 78 0 0.0 1.0 0.00 0.01 0.00 94 1011.7
20260906050113 78 0 0.0 1.0 0.00 0.01 0.00 93 1011.8
20260906044550 79 108 0.0 2.0 0.00 0.01 0.01 93 1011.8
20260906043048 79 0 0.0 1.0 0.00 0.01 0.01 93 1011.7
20260906041552 79 105 0.0 3.0 0.00 0.01 0.01 93 1011.8
20260906040049 79 104 0.0 2.0 0.00 0.01 0.01 93 1012.0
20260906034545 80 107 1.0 3.0 0.00 0.01 0.01 93 1012.2
20260906033045 80 104 1.0 3.0 0.00 0.01 0.01 93 1012.6
20260906031543 80 0 0.0 1.0 0.00 0.01 0.01 93 1012.7
20260906030052 81 0 0.0 2.0 0.00 0.01 0.01 92 1012.6
20260906024547 81 107 1.0 3.0 0.00 0.01 0.01 93 1012.3
20260906023044 81 0 0.0 2.0 0.00 0.01 0.01 92 1012.0
20260906021555 81 12 0.0 1.0 0.00 0.01 0.01 92 1012.0
20260906020048 81 12 0.0 2.0 0.00 0.01 0.01 91 1011.8
20260906014543 82 12 1.0 2.0 0.00 0.01 0.01 91 1011.4
20260906013044 82 12 0.0 2.0 0.00 0.01 0.01 90 1011.3
20260906011541 82 0 0.0 2.0 0.00 0.01 0.01 89 1011.2
20260906010044 83 13 0.0 2.0 0.00 0.01 0.01 87 1011.0
20260906004543 83 14 0.0 2.0 0.00 0.01 0.01 86 1011.0
20260906003050 83 14 0.0 2.0 0.00 0.01 0.01 85 1011.0
20260906001546 84 14 1.0 2.0 0.00 0.01 0.01 84 1011.0
20260906000044 84 14 1.0 3.0 0.00 0.01 0.01 83 1010.9
20260905234554 85 5 1.0 3.0 0.00 0.01 0.01 83 1010.9
20260905233044 86 5 1.0 3.0 0.00 0.01 0.01 81 1010.9
20260905231546 87 55 1.0 3.0 0.00 0.01 0.01 77 1011.2
20260905230050 88 0 0.0 1.0 0.00 0.01 0.01 75 1011.2
20260905224545 88 0 0.0 2.0 0.00 0.10 0.01 73 1011.3
20260905223047 89 143 0.0 3.0 0.00 0.10 0.01 71 1011.2
20260905221544 89 0 0.0 1.0 0.00 0.10 0.01 72 1011.4
20260905220053 88 0 0.0 1.0 0.00 0.10 0.01 72 1011.5
20260905214601 88 294 0.0 3.0 0.00 0.14 0.01 75 1011.8
20260905213046 89 284 1.0 4.0 0.00 0.14 0.01 71 1011.8
20260905211750 89 34 2.0 4.0 0.00 0.14 0.01 72 1012.0
20260905210048 88 0 0.0 3.0 0.00 0.14 0.01 74 1012.2
20260905204545 88 186 0.0 3.0 0.00 0.14 0.01 75 1012.2
20260905203046 86 141 0.0 2.0 0.00 0.14 0.01 76 1012.5
20260905201545 86 123 0.0 2.0 0.00 0.14 0.01 77 1012.8
20260905200046 85 115 2.0 6.0 0.00 0.14 0.01 78 1012.8
20260905194555 85 0 0.0 7.0 0.00 0.14 0.01 81 1013.0
20260905193044 84 120 1.0 4.0 0.00 0.14 0.01 82 1013.0
20260905191544 83 0 1.0 3.0 0.00 0.14 0.01 83 1013.1
20260905190042 83 134 0.0 2.0 0.00 0.14 0.01 84 1013.2
20260905184604 82 0 0.0 3.0 0.00 0.14 0.01 85 1013.8
20260905183046 82 94 1.0 4.0 0.00 0.14 0.01 85 1014.1
20260905181552 82 0 1.0 4.0 0.00 0.14 0.01 86 1014.3
20260905180052 82 0 0.0 5.0 0.00 0.14 0.01 86 1014.3
20260905174550 82 119 1.0 7.0 0.00 0.14 0.01 86 1014.5
20260905173045 82 148 1.0 7.0 0.00 0.14 0.01 88 1014.7
20260905171544 82 121 2.0 8.0 0.00 0.14 0.01 87 1015.0
20260905170050 82 178 2.0 8.0 0.00 0.14 0.01 87 1015.1
20260905164545 82 156 1.0 8.0 0.00 0.14 0.01 88 1015.0
20260905163102 82 115 3.0 7.0 0.00 0.14 0.01 87 1014.9
20260905161544 82 128 4.0 8.0 0.00 0.14 0.01 86 1015.2
20260905160055 82 130 2.0 7.0 0.00 0.14 0.01 88 1015.1
20260905154549 82 98 0.0 4.0 0.00 0.14 0.01 87 1015.0
20260905153042 82 0 1.0 4.0 0.00 0.14 0.01 87 1014.8
20260905151546 82 0 0.0 3.0 0.00 0.14 0.01 87 1014.8
20260905150045 81 113 1.0 3.0 0.00 0.14 0.01 89 1014.8
20260905144552 80 122 1.0 4.0 0.00 0.14 0.01 92 1014.8
20260905143054 79 304 0.0 1.0 0.00 0.14 0.01 95 1014.6
20260905141603 78 0 0.0 1.0 0.00 0.14 0.01 96 1014.7
20260905140055 77 0 0.0 1.0 0.00 0.14 0.01 96 1014.6
20260905134603 77 0 0.0 2.0 0.00 0.14 0.01 97 1014.6
20260905133054 76 300 0.0 1.0 0.00 0.14 0.01 97 1014.5
20260905131554 76 0 1.0 3.0 0.00 0.14 0.01 97 1014.2
20260905130055 76 360 0.0 2.0 0.00 0.14 0.01 98 1014.3
20260905124550 75 5 1.0 3.0 0.00 0.14 0.01 97 1014.4
20260905123046 75 0 0.0 1.0 0.00 0.14 0.01 97 1014.3
20260905121544 75 0 0.0 2.0 0.00 0.14 0.01 97 1014.2
20260905120042 75 0 0.0 1.0 0.00 0.14 0.01 97 1014.1
20260905114618 75 9 1.0 3.0 0.00 0.14 0.01 97 1014.1
20260905113045 75 360 0.0 2.0 0.00 0.14 0.01 97 1013.6
20260905111551 75 360 0.0 2.0 0.00 0.14 0.01 97 1013.6